VA3XLC Weather Reports


time (UTC)temp
C
wind
direction
speed
KPH
gust
KPH
rain 1hr
cm
rain 24hr
cm
rain mn
cm
humidity
%
barometer
mb
20260903073718 20 338 1.6 1.6 0.00 0.00 0.00 98 981.1
20260903072135 20 330 1.6 1.6 0.00 0.00 0.00 98 980.8
20260903071635 20 340 3.2 3.2 0.00 0.00 0.00 98 980.7
20260903071135 20 8 3.2 4.8 0.00 0.00 0.00 98 980.7
20260903070634 20 128 3.2 3.2 0.00 0.00 0.00 98 980.8
20260903070134 20 153 3.2 4.8 0.00 0.00 0.00 98 980.8
20260903065634 20 344 3.2 3.2 0.00 0.00 0.00 98 980.9
20260903065134 20 337 1.6 3.2 0.00 0.00 0.00 98 981.0
20260903063030 20 142 3.2 4.8 0.00 0.00 0.00 98 981.2
20260903062530 20 143 4.8 4.8 0.00 0.00 0.00 98 981.3
20260903061508 20 342 3.2 3.2 0.00 0.00 0.00 98 981.5
20260903061008 20 331 1.6 1.6 0.00 0.00 0.00 98 981.5
20260903060508 20 137 4.8 4.8 0.00 0.00 0.00 98 981.4
20260903060008 20 341 3.2 3.2 0.00 0.00 0.00 98 981.5
20260903055507 20 332 1.6 3.2 0.00 0.00 0.00 98 981.5
20260903055007 20 339 3.2 4.8 0.00 0.00 0.00 98 981.7
20260903053425 20 333 3.2 3.2 0.00 0.00 0.00 98 981.6
20260903052924 20 133 3.2 4.8 0.00 0.00 0.00 97 981.5
20260903052424 20 147 4.8 4.8 0.00 0.00 0.00 98 981.5
20260903051924 20 134 3.2 4.8 0.00 0.00 0.00 97 981.4
20260903051424 20 180 3.2 4.8 0.00 0.00 0.00 97 981.5
20260903050924 20 101 1.6 3.2 0.00 0.00 0.00 97 981.4
20260903050423 20 345 1.6 4.8 0.00 0.00 0.00 97 981.4
20260903045402 20 134 3.2 6.4 0.00 0.00 0.00 97 981.3
20260903044902 20 124 3.2 4.8 0.00 0.00 0.00 97 981.5
20260903044402 20 0 0.0 0.0 0.00 0.00 0.00 97 981.4
20260903043340 20 133 1.6 4.8 0.00 0.00 0.00 97 980.9
20260903042840 20 333 1.6 1.6 0.00 0.00 0.00 97 980.8
20260903041818 20 328 1.6 1.6 0.00 0.00 0.00 97 980.6
20260903041317 20 341 1.6 3.2 0.00 0.00 0.00 97 980.4
20260903040256 20 83 3.2 3.2 0.00 0.00 0.00 97 980.6
20260903035756 20 127 3.2 6.4 0.00 0.00 0.00 97 980.7
20260903035255 20 313 3.2 4.8 0.00 0.00 0.00 97 980.3
20260903034755 20 95 3.2 3.2 0.00 0.00 0.00 97 980.2
20260903034255 20 291 1.6 3.2 0.00 0.00 0.00 97 980.2
20260903033755 20 358 3.2 3.2 0.00 0.00 0.00 97 980.0
20260903033254 20 340 3.2 4.8 0.00 0.00 0.00 97 980.0
20260903032754 20 101 1.6 3.2 0.00 0.00 0.00 97 980.0
20260903032254 20 331 1.6 1.6 0.00 0.00 0.00 97 980.1
20260903031754 20 339 1.6 1.6 0.00 0.00 0.00 97 980.2
20260903031254 20 140 4.8 6.4 0.00 0.00 0.00 96 980.3
20260903030753 20 124 1.6 3.2 0.00 0.00 0.00 96 980.7
20260903030253 20 319 1.6 3.2 0.00 0.00 0.00 96 980.6
20260903025753 20 326 1.6 1.6 0.00 0.00 0.00 96 980.7
20260903025253 20 324 1.6 4.8 0.00 0.00 0.00 96 980.6
20260903024752 20 329 1.6 1.6 0.00 0.00 0.00 96 980.6
20260903024252 20 318 3.2 3.2 0.00 0.00 0.00 95 980.6
20260903023752 20 146 4.8 8.0 0.00 0.00 0.00 95 981.1
20260903023252 20 301 3.2 6.4 0.00 0.00 0.00 95 981.1
20260903022230 20 277 3.2 4.8 0.00 0.00 0.00 95 980.8
20260903021730 20 335 1.6 3.2 0.00 0.00 0.00 95 981.1
20260903021230 20 81 4.8 9.7 0.00 0.00 0.00 96 981.2
20260903020729 20 55 3.2 4.8 0.00 0.00 0.00 96 982.0
20260903020228 20 14 4.8 8.0 0.00 0.00 0.00 97 982.2
20260903015728 20 340 4.8 6.4 0.00 0.00 0.00 97 981.9
20260903014706 20 0 3.2 4.8 0.00 0.00 0.00 97 981.2
20260903014206 20 147 8.0 9.7 0.00 0.00 0.00 97 981.2
20260903013145 20 61 3.2 4.8 0.00 0.00 0.00 97 981.4
20260903012645 20 326 3.2 4.8 0.00 0.00 0.00 97 981.4
20260903012144 20 334 3.2 3.2 0.00 0.00 0.00 97 981.6
20260903011644 20 335 3.2 3.2 0.00 0.00 0.00 97 981.7
20260903010101 20 135 4.8 8.0 0.00 0.00 0.00 96 981.0
20260903005601 20 139 6.4 9.7 0.00 0.00 0.00 96 981.3
20260903005100 20 317 3.2 4.8 0.00 0.00 0.00 96 981.3
20260903004600 20 329 3.2 3.2 0.00 0.00 0.00 96 981.1
20260903004059 20 150 3.2 6.4 0.00 0.00 0.00 96 981.2
20260903003558 20 160 4.8 8.0 0.00 0.00 0.00 96 981.2
20260903003058 20 330 1.6 1.6 0.00 0.00 0.00 96 981.1
20260903002037 20 152 9.7 11.3 0.00 0.00 0.00 96 981.1
20260903000454 20 252 4.8 6.4 0.00 0.00 0.00 96 981.4
20260902235953 20 323 1.6 3.2 0.00 0.00 0.00 96 980.4
20260902235453 20 324 1.6 3.2 0.00 0.00 0.00 96 980.5
20260902234432 20 346 3.2 8.0 0.00 0.00 0.00 96 980.6
20260902233931 20 15 4.8 11.3 0.00 0.00 0.00 96 980.9
20260902233431 20 152 6.4 9.7 0.00 0.00 0.00 96 981.5
20260902232930 20 328 3.2 6.4 0.00 0.00 0.00 96 981.6
20260902232430 20 159 6.4 11.3 0.00 0.00 0.00 96 981.5
20260902231930 20 206 6.4 9.7 0.00 0.00 0.00 96 981.2
20260902231429 20 152 8.0 9.7 0.00 0.00 0.00 96 981.0
20260902230408 20 119 3.2 6.4 0.00 0.00 0.00 95 980.5
20260902225908 20 10 3.2 4.8 0.00 0.00 0.00 95 980.6
20260902225407 20 99 4.8 8.0 0.00 0.00 0.00 96 980.9
20260902224907 20 154 6.4 9.7 0.00 0.00 0.00 95 981.0
20260902224407 20 167 6.4 9.7 0.00 0.00 0.00 95 981.0
20260902223346 20 161 8.0 9.7 0.00 0.00 0.00 95 980.1
20260902222845 20 147 3.2 6.4 0.00 0.00 0.00 95 980.2
20260902222344 20 18 3.2 4.8 0.00 0.00 0.00 95 980.4
20260902221844 20 122 6.4 9.7 0.00 0.00 0.00 95 980.9
20260902215739 20 11 9.7 14.5 0.00 0.00 0.00 94 981.7
20260902215239 21 60 9.7 16.1 0.00 0.00 0.00 92 982.1
20260902214738 21 21 8.0 14.5 0.00 0.00 0.00 90 982.0
20260902214238 22 37 12.9 19.3 0.00 0.00 0.00 87 981.0
20260902213738 23 344 9.7 19.3 0.00 0.00 0.00 86 981.4
20260902213237 24 352 4.8 8.0 0.00 0.00 0.00 94 980.3
20260902212737 24 193 1.6 3.2 0.00 0.00 0.00 94 979.6
20260902212236 24 0 0.0 0.0 0.00 0.00 0.00 94 979.2
20260902211736 25 169 1.6 3.2 0.00 0.00 0.00 95 979.3
20260902210714 25 186 3.2 6.4 0.00 0.00 0.00 94 979.7
20260902210214 24 277 3.2 4.8 0.00 0.00 0.00 93 979.9
20260902205714 23 315 4.8 9.7 0.00 0.00 0.00 92 980.1
20260902205213 23 52 3.2 4.8 0.00 0.00 0.00 95 979.9
20260902204712 23 294 4.8 8.0 0.00 0.00 0.00 93 980.1
20260902204212 23 269 8.0 11.3 0.00 0.00 0.00 91 980.3
20260902203713 25 201 4.8 6.4 0.00 0.00 0.00 87 980.9
20260902203212 27 340 12.9 20.9 0.00 0.00 0.00 92 980.6
20260902201629 28 195 3.2 6.4 0.00 0.00 0.00 92 980.2
20260902201129 28 228 3.2 4.8 0.00 0.00 0.00 91 980.4
20260902200629 28 224 3.2 6.4 0.00 0.00 0.00 89 980.3
20260902200128 28 217 3.2 4.8 0.00 0.00 0.00 88 980.3
20260902195628 28 208 1.6 3.2 0.00 0.00 0.00 89 980.4
20260902195128 28 235 4.8 8.0 0.00 0.00 0.00 87 980.5
20260902194106 27 194 3.2 4.8 0.00 0.00 0.00 85 980.7
20260902193606 27 195 4.8 6.4 0.00 0.00 0.00 84 980.7
20260902193106 27 150 4.8 8.0 0.00 0.00 0.00 84 980.8
20260902192606 26 164 3.2 4.8 0.00 0.00 0.00 85 980.8
20260902192106 26 182 3.2 4.8 0.00 0.00 0.00 89 980.8
20260902191605 25 155 3.2 4.8 0.00 0.00 0.00 90 980.8
20260902191105 25 156 3.2 6.4 0.00 0.00 0.00 92 980.9
20260902190605 25 181 4.8 6.4 0.00 0.00 0.00 93 981.0
20260902190104 24 171 3.2 4.8 0.00 0.00 0.00 95 981.0
20260902185604 23 181 4.8 6.4 0.00 0.00 0.00 95 981.2
20260902185104 23 183 4.8 4.8 0.00 0.00 0.00 95 981.3
20260902183521 22 183 3.2 4.8 0.00 0.00 0.00 95 981.6
20260902183021 22 180 3.2 4.8 0.00 0.00 0.00 95 981.5
20260902182521 22 189 1.6 3.2 0.00 0.00 0.00 95 981.4
20260902182020 22 176 4.8 4.8 0.00 0.00 0.00 95 981.5
20260902181520 23 188 3.2 4.8 0.00 0.00 0.00 95 981.8
20260902181020 23 351 3.2 6.4 0.00 0.00 0.00 94 982.0
20260902180520 25 159 4.8 11.3 0.00 0.00 0.00 90 981.5
20260902180020 28 53 12.9 20.9 0.00 0.00 0.00 79 982.0
20260902175519 28 261 1.6 3.2 0.00 0.00 0.00 86 981.1
20260902175019 28 261 3.2 4.8 0.00 0.00 0.00 85 981.4
20260902174519 28 260 6.4 12.9 0.00 0.00 0.00 85 981.2
20260902174018 28 267 6.4 9.7 0.00 0.00 0.00 85 981.1
20260902173518 28 270 9.7 12.9 0.00 0.00 0.00 84 981.3
20260902171935 28 264 9.7 16.1 0.00 0.00 0.00 85 981.6
20260902170913 28 245 1.6 4.8 0.00 0.00 0.00 85 981.9
20260902170413 27 275 8.0 11.3 0.00 0.00 0.00 86 981.9
20260902165913 27 266 6.4 9.7 0.00 0.00 0.00 88 982.0
20260902164852 27 279 6.4 12.9 0.00 0.00 0.00 87 982.1
20260902164351 27 261 6.4 9.7 0.00 0.00 0.00 89 982.2
20260902163851 27 276 12.9 17.7 0.00 0.00 0.00 90 982.2
20260902163351 27 267 4.8 9.7 0.00 0.00 0.00 89 982.4
20260902162851 27 228 4.8 6.4 0.00 0.00 0.00 89 982.4
20260902162350 27 273 4.8 9.7 0.00 0.00 0.00 88 982.3
20260902161850 27 202 6.4 11.3 0.00 0.00 0.00 88 982.4
20260902161350 27 284 4.8 11.3 0.00 0.00 0.00 89 982.4
20260902160850 27 232 4.8 8.0 0.00 0.00 0.00 88 982.5
20260902160350 26 254 6.4 14.5 0.00 0.00 0.00 90 982.5
20260902155850 26 278 8.0 12.9 0.00 0.00 0.00 91 982.5
20260902155348 26 240 3.2 8.0 0.00 0.00 0.00 91 982.5
20260902154848 26 220 4.8 8.0 0.00 0.00 0.00 90 982.5
20260902154348 26 270 6.4 8.0 0.00 0.00 0.00 89 982.4
20260902152805 26 256 6.4 12.9 0.00 0.00 0.00 90 982.7
20260902152307 25 240 4.8 8.0 0.00 0.00 0.00 92 982.8
20260902151804 25 235 3.2 6.4 0.00 0.00 0.00 91 982.8
20260902151304 25 242 3.2 9.7 0.00 0.00 0.00 91 982.9
20260902150242 25 262 6.4 12.9 0.00 0.00 0.00 91 982.8
20260902145742 25 283 4.8 8.0 0.00 0.00 0.00 91 982.8
20260902145242 25 168 1.6 3.2 0.00 0.00 0.00 92 982.8
20260902144742 25 259 4.8 6.4 0.00 0.00 0.00 92 982.9
20260902144241 24 251 3.2 6.4 0.00 0.00 0.00 92 982.9
20260902143741 24 207 4.8 12.9 0.00 0.00 0.00 92 983.0
20260902143240 24 220 3.2 8.0 0.00 0.00 0.00 92 982.9
20260902142218 23 240 6.4 8.0 0.00 0.00 0.00 93 982.9
20260902141718 23 253 4.8 6.4 0.00 0.00 0.00 94 982.8
20260902141217 23 234 1.6 4.8 0.00 0.00 0.00 94 982.7
20260902140717 23 273 4.8 6.4 0.00 0.00 0.00 94 982.6
20260902140217 23 235 3.2 9.7 0.00 0.00 0.00 94 982.7
20260902135154 23 265 4.8 9.7 0.00 0.00 0.00 94 982.6
20260902134654 23 242 4.8 6.4 0.00 0.00 0.00 94 982.6
20260902134154 23 260 8.0 14.5 0.00 0.00 0.00 94 982.6
20260902133653 23 259 4.8 8.0 0.00 0.00 0.00 94 982.5
20260902133152 23 249 3.2 4.8 0.00 0.00 0.00 94 982.6
20260902132651 23 239 4.8 8.0 0.00 0.00 0.00 94 982.4
20260902131630 23 228 1.6 4.8 0.00 0.00 0.00 94 982.4
20260902131129 23 248 4.8 8.0 0.00 0.00 0.00 94 982.4
20260902130629 23 193 1.6 4.8 0.00 0.00 0.00 94 982.5
20260902130128 23 244 3.2 6.4 0.00 0.00 0.00 94 982.6
20260902124024 22 251 3.2 4.8 0.00 0.00 0.00 94 982.5
20260902123523 22 174 3.2 4.8 0.00 0.00 0.00 94 982.2
20260902123023 22 171 0.0 1.6 0.00 0.00 0.00 94 982.2
20260902122523 22 156 3.2 3.2 0.00 0.00 0.00 94 982.3
20260902122022 22 0 0.0 0.0 0.00 0.00 0.00 94 982.4
20260902121522 22 276 1.6 3.2 0.00 0.00 0.00 94 982.6
20260902121022 22 275 3.2 4.8 0.00 0.00 0.00 93 982.6
20260902120521 22 296 3.2 4.8 0.00 0.00 0.00 93 982.6
20260902120021 22 256 3.2 4.8 0.00 0.00 0.00 94 982.6
20260902115520 22 267 3.2 4.8 0.00 0.00 0.00 94 982.6
20260902115020 22 236 1.6 3.2 0.00 0.00 0.00 94 982.6
20260902113437 22 0 0.0 0.0 0.00 0.00 0.00 94 982.4
20260902112937 22 0 0.0 0.0 0.00 0.00 0.00 94 982.5
20260902112436 22 0 0.0 0.0 0.00 0.00 0.00 94 982.4
20260902111935 22 255 1.6 3.2 0.00 0.00 0.00 94 982.4
20260902111435 21 247 3.2 3.2 0.00 0.00 0.00 94 982.4
20260902110413 21 224 1.6 3.2 0.00 0.00 0.00 94 982.0
20260902105352 22 0 0.0 0.0 0.00 0.00 0.00 94 981.9
20260902104851 22 0 0.0 0.0 0.00 0.00 0.00 93 981.8
20260902103309 22 0 0.0 0.0 0.00 0.00 0.00 93 981.6
20260902102809 22 0 0.0 0.0 0.00 0.00 0.00 93 981.6
20260902101747 22 146 1.6 3.2 0.00 0.00 0.00 93 981.5
20260902101247 22 261 3.2 6.4 0.00 0.00 0.00 92 981.6
20260902100747 22 274 3.2 4.8 0.00 0.00 0.00 92 981.5
20260902100247 22 256 6.4 8.0 0.00 0.00 0.00 92 981.5
20260902095746 23 261 4.8 8.0 0.00 0.00 0.00 92 981.6
20260902094725 23 257 6.4 11.3 0.00 0.00 0.00 93 981.5
20260902094225 23 239 4.8 8.0 0.00 0.00 0.00 93 981.6
20260902093725 23 253 4.8 9.7 0.00 0.00 0.00 93 981.5
20260902093224 23 242 3.2 8.0 0.00 0.00 0.00 93 981.2
20260902092724 23 237 3.2 4.8 0.00 0.00 0.00 92 981.1
20260902092224 23 242 4.8 8.0 0.00 0.00 0.00 92 981.0
20260902091724 23 243 1.6 3.2 0.00 0.00 0.00 92 981.1
20260902091223 23 246 8.0 14.5 0.00 0.00 0.00 94 981.3
20260902090202 22 247 4.8 8.0 0.00 0.00 0.00 96 981.8
20260902085702 22 0 0.0 0.0 0.00 0.00 0.00 97 981.5
20260902085202 22 0 0.0 0.0 0.00 0.00 0.00 97 981.6
20260902084702 22 0 0.0 0.0 0.00 0.00 0.00 97 981.6
20260902083640 22 0 0.0 0.0 0.00 0.00 0.00 97 981.3
20260902083140 22 145 3.2 3.2 0.00 0.00 0.00 97 981.4
20260902082639 22 0 0.0 0.0 0.00 0.00 0.00 97 981.5
20260902082139 22 0 0.0 0.0 0.00 0.00 0.00 97 981.6
20260902081639 22 169 0.0 1.6 0.00 0.00 0.00 97 981.7
20260902081139 22 0 0.0 0.0 0.00 0.00 0.00 97 981.8
20260902080639 22 0 0.0 0.0 0.00 0.00 0.00 97 981.7
20260902080138 22 0 0.0 0.0 0.00 0.00 0.00 97 981.6
20260902075638 22 158 1.6 3.2 0.00 0.00 0.00 97 981.7
20260902075138 22 0 0.0 0.0 0.00 0.00 0.00 97 981.8